TimeMST,TemperatureF,Dew PointF,Humidity,Sea Level PressureIn,VisibilityMPH,Wind Direction,Wind SpeedMPH,Gust SpeedMPH,PrecipitationIn,Events,Conditions,WindDirDegrees,DateUTC
12:56 AM,21.0,17.1,85,30.26,8.0,SE,4.6,-,N/A,,Clear,130,2013-03-01 07:56:00
2:56 AM,18.0,15.1,88,30.28,6.0,NW,5.8,-,N/A,,Clear,310,2013-03-01 09:56:00
3:32 AM,17.6,14.0,86,30.18,6.0,WNW,6.9,-,N/A,,Scattered Clouds,300,2013-03-01 10:32:00
3:40 AM,15.8,14.0,93,30.18,5.0,WNW,6.9,-,N/A,,Mostly Cloudy,300,2013-03-01 10:40:00
3:49 AM,15.8,14.0,93,30.19,5.0,WNW,6.9,-,N/A,,Scattered Clouds,290,2013-03-01 10:49:00
3:56 AM,16.0,14.0,92,30.30,6.0,WNW,6.9,-,N/A,,Scattered Clouds,290,2013-03-01 10:56:00
4:17 AM,17.6,15.8,93,30.19,5.0,NW,6.9,-,N/A,,Mostly Cloudy,310,2013-03-01 11:17:00
4:56 AM,19.9,18.0,92,30.31,5.0,NNW,5.8,-,N/A,,Overcast,330,2013-03-01 11:56:00
5:49 AM,19.4,19.4,100,30.23,2.0,NNE,3.5,-,N/A,,Overcast,30,2013-03-01 12:49:00
5:56 AM,21.0,19.0,92,30.35,1.5,NNE,3.5,-,N/A,,Overcast,30,2013-03-01 12:56:00
6:08 AM,21.2,19.4,93,30.24,0.5,NNE,3.5,-,N/A,Fog,Light Freezing Fog,30,2013-03-01 13:08:00
6:34 AM,21.2,19.4,93,30.23,0.2,Calm,Calm,-,N/A,Fog,Light Freezing Fog,0,2013-03-01 13:34:00
6:56 AM,21.9,21.0,96,30.35,0.2,Calm,Calm,-,N/A,Fog,Light Freezing Fog,0,2013-03-01 13:56:00
7:56 AM,24.1,21.9,91,30.36,0.2,North,3.5,-,N/A,Fog,Light Freezing Fog,350,2013-03-01 14:56:00
8:08 AM,23.0,21.2,93,30.25,0.5,Variable,3.5,-,N/A,Fog,Light Freezing Fog,0,2013-03-01 15:08:00
8:33 AM,24.8,21.2,86,30.26,1.8,Calm,Calm,-,N/A,,Overcast,0,2013-03-01 15:33:00
8:40 AM,23.0,21.2,93,30.26,2.0,WNW,3.5,-,N/A,,Overcast,300,2013-03-01 15:40:00
8:56 AM,24.1,21.9,91,30.36,1.8,Calm,Calm,-,N/A,,Overcast,0,2013-03-01 15:56:00
9:14 AM,24.8,21.2,86,30.25,2.0,Calm,Calm,-,N/A,,Overcast,0,2013-03-01 16:14:00
9:39 AM,24.8,23.0,93,30.25,3.0,Calm,Calm,-,N/A,,Overcast,0,2013-03-01 16:39:00
9:56 AM,25.0,23.0,92,30.36,3.0,Calm,Calm,-,N/A,,Overcast,0,2013-03-01 16:56:00
10:56 AM,26.1,23.0,88,30.36,5.0,Calm,Calm,-,N/A,,Overcast,0,2013-03-01 17:56:00
11:33 AM,28.4,24.8,86,30.23,8.0,South,6.9,-,N/A,,Mostly Cloudy,180,2013-03-01 18:33:00
11:56 AM,28.9,25.0,85,30.33,10.0,SSE,5.8,-,N/A,,Mostly Cloudy,150,2013-03-01 18:56:00
12:10 PM,30.2,24.8,80,30.21,10.0,SSE,8.1,-,N/A,,Scattered Clouds,160,2013-03-01 19:10:00
12:56 PM,36.0,26.1,67,30.29,10.0,South,8.1,-,N/A,,Clear,180,2013-03-01 19:56:00
3:56 PM,39.9,25.0,55,30.25,10.0,SSE,11.5,-,N/A,,Scattered Clouds,150,2013-03-01 22:56:00
4:56 PM,37.0,25.0,62,30.25,10.0,SE,10.4,-,N/A,,Overcast,130,2013-03-01 23:56:00
5:56 PM,34.0,26.1,73,30.25,10.0,SE,10.4,-,N/A,,Mostly Cloudy,140,2013-03-02 00:56:00
6:56 PM,33.1,25.0,72,30.22,10.0,SSE,13.8,-,N/A,,Clear,160,2013-03-02 01:56:00
7:56 PM,33.1,24.1,70,30.20,10.0,South,13.8,-,N/A,,Mostly Cloudy,170,2013-03-02 02:56:00
8:56 PM,30.9,24.1,76,30.18,10.0,South,13.8,-,N/A,,Clear,180,2013-03-02 03:56:00
9:56 PM,30.9,24.1,76,30.17,10.0,South,15.0,-,N/A,,Partly Cloudy,180,2013-03-02 04:56:00
10:56 PM,30.9,24.1,76,30.15,10.0,South,11.5,-,N/A,,Mostly Cloudy,180,2013-03-02 05:56:00
11:56 PM,30.0,24.1,79,30.13,10.0,South,11.5,-,N/A,,Mostly Cloudy,180,2013-03-02 06:56:00